When you browse on this site, cookies collect data to enhance your experience and personalize the content and advertising you see.
Visit our Privacy Policy to learn more. By continuing to use the site, you agree to this use of cookies and data.
  • In Czech Republic
  • List of Countries
  • For 7 days
  • Water Temperature
  • Weather Map
  • Weather Widgets
  • user-avatar
    Login

    Hourly Weather Eisenstadt

    Today, 16 November, Saturday

    Time Temperature Precipitation Wind Pressure Humidity
    00:00 +8°C° 0.1 mm 5 mps 715 mmHg 86%
    01:00 +8°C° 0.1 mm 5 mps 715 mmHg 84%
    02:00 +8°C° 0.2 mm 5 mps 715 mmHg 86%
    03:00 +8°C° 0.2 mm 6 mps 715 mmHg 88%
    04:00 +8°C° 0.2 mm 6 mps 716 mmHg 90%
    05:00 +8°C° 0.3 mm 5 mps 716 mmHg 91%
    06:00 +7°C° 0.3 mm 5 mps 716 mmHg 92%
    07:00 +7°C° 0.3 mm 4 mps 717 mmHg 92%
    08:00 +7°C° 0 mm 4 mps 717 mmHg 88%
    09:00 +8°C° 0 mm 5 mps 718 mmHg 84%
    10:00 +8°C° 0 mm 5 mps 718 mmHg 80%
    11:00 +9°C° 0 mm 5 mps 719 mmHg 80%
    12:00 +9°C° 0 mm 5 mps 719 mmHg 79%
    13:00 +9°C° 0 mm 5 mps 719 mmHg 79%
    14:00 +8°C° 0 mm 5 mps 719 mmHg 81%
    15:00 +8°C° 0 mm 4 mps 719 mmHg 84%
    16:00 +8°C° 0 mm 3 mps 719 mmHg 87%
    17:00 +8°C° 0 mm 3 mps 720 mmHg 87%
    18:00 +8°C° 0 mm 2 mps 720 mmHg 88%
    19:00 +8°C° 0 mm 2 mps 720 mmHg 88%
    20:00 +8°C° 0.1 mm 2 mps 720 mmHg 89%
    21:00 +8°C° 0.1 mm 2 mps 720 mmHg 90%
    22:00 +9°C° 0.1 mm 1 mps 720 mmHg 90%
    23:00 +9°C° 0 mm 1 mps 720 mmHg 90%

    Tomorrow, 17 November, Sunday

    Time Temperature Precipitation Wind Pressure Humidity
    00:00 +9°C° 0 mm 1 mps 720 mmHg 90%
    01:00 +8°C° 0 mm 1 mps 720 mmHg 90%
    02:00 +8°C° 0 mm 1 mps 720 mmHg 91%
    03:00 +8°C° 0 mm 1 mps 719 mmHg 91%
    04:00 +8°C° 0 mm 1 mps 719 mmHg 92%
    05:00 +8°C° 0 mm 1 mps 719 mmHg 93%
    06:00 +8°C° 0 mm 1 mps 719 mmHg 94%
    07:00 +7°C° 0 mm 1 mps 719 mmHg 95%
    08:00 +7°C° 0 mm 2 mps 719 mmHg 93%
    09:00 +8°C° 0 mm 2 mps 719 mmHg 91%
    10:00 +9°C° 0 mm 2 mps 718 mmHg 88%
    11:00 +10°C° 0 mm 3 mps 718 mmHg 87%
    12:00 +10°C° 0 mm 3 mps 718 mmHg 85%
    13:00 +11°C° 0 mm 3 mps 718 mmHg 84%
    14:00 +10°C° 0 mm 3 mps 717 mmHg 86%
    15:00 +10°C° 0 mm 3 mps 717 mmHg 88%
    16:00 +10°C° 0 mm 2 mps 717 mmHg 90%
    17:00 +9°C° 0 mm 2 mps 716 mmHg 91%
    18:00 +9°C° 0 mm 2 mps 716 mmHg 91%
    19:00 +8°C° 0 mm 2 mps 716 mmHg 91%
    20:00 +8°C° 0 mm 2 mps 716 mmHg 91%
    21:00 +8°C° 0 mm 2 mps 716 mmHg 92%
    22:00 +8°C° 0 mm 2 mps 715 mmHg 92%
    23:00 +8°C° 0.3 mm 2 mps 715 mmHg 92%

    Day after tomorrow, 18 November, Monday

    Time Temperature Precipitation Wind Pressure Humidity
    00:00 +8°C° 0.3 mm 2 mps 715 mmHg 92%
    01:00 +8°C° 0.3 mm 2 mps 714 mmHg 92%
    02:00 +8°C° 1.5 mm 2 mps 714 mmHg 93%
    03:00 +8°C° 1.5 mm 3 mps 714 mmHg 95%
    04:00 +8°C° 1.5 mm 3 mps 714 mmHg 96%
    05:00 +8°C° 1.3 mm 3 mps 714 mmHg 96%
    06:00 +8°C° 1.3 mm 4 mps 715 mmHg 96%
    07:00 +8°C° 1.3 mm 4 mps 715 mmHg 96%
    08:00 +8°C° 0.4 mm 4 mps 715 mmHg 92%
    09:00 +8°C° 0.4 mm 5 mps 716 mmHg 87%
    10:00 +8°C° 0.4 mm 5 mps 716 mmHg 83%
    11:00 +8°C° 0 mm 5 mps 717 mmHg 78%
    12:00 +9°C° 0 mm 6 mps 717 mmHg 73%
    13:00 +10°C° 0 mm 6 mps 718 mmHg 68%
    14:00 +9°C° 0 mm 6 mps 718 mmHg 71%
    15:00 +8°C° 0 mm 5 mps 718 mmHg 74%
    16:00 +8°C° 0 mm 5 mps 719 mmHg 77%
    17:00 +7°C° 0 mm 4 mps 719 mmHg 79%
    18:00 +7°C° 0 mm 4 mps 719 mmHg 82%
    19:00 +6°C° 0 mm 4 mps 720 mmHg 84%
    20:00 +7°C° 0 mm 3 mps 720 mmHg 85%
    21:00 +7°C° 0 mm 3 mps 720 mmHg 86%
    22:00 +7°C° 0 mm 2 mps 721 mmHg 87%
    23:00 +6°C° 0 mm 2 mps 721 mmHg 89%

    19 November, Tuesday

    Time Temperature Precipitation Wind Pressure Humidity
    00:00 +6°C° 0 mm 2 mps 721 mmHg 90%
    01:00 +7°C° 0 mm 1 mps 721 mmHg 92%
    02:00 +7°C° 0 mm 1 mps 721 mmHg 91%
    03:00 +7°C° 0 mm 1 mps 721 mmHg 91%
    04:00 +7°C° 0 mm 1 mps 721 mmHg 90%
    05:00 +7°C° 0.1 mm 1 mps 721 mmHg 89%
    06:00 +6°C° 0.1 mm 2 mps 721 mmHg 89%
    07:00 +7°C° 0.1 mm 2 mps 721 mmHg 88%
    08:00 +7°C° 0 mm 2 mps 721 mmHg 84%
    09:00 +8°C° 0 mm 2 mps 721 mmHg 80%
    10:00 +9°C° 0 mm 2 mps 721 mmHg 76%
    11:00 +9°C° 0 mm 3 mps 721 mmHg 74%
    12:00 +10°C° 0 mm 3 mps 720 mmHg 72%
    13:00 +11°C° 0 mm 3 mps 720 mmHg 71%
    14:00 +10°C° 0 mm 2 mps 720 mmHg 75%
    15:00 +9°C° 0 mm 2 mps 720 mmHg 80%
    16:00 +10°C° 0 mm 1 mps 719 mmHg 84%
    17:00 +9°C° 0 mm 1 mps 720 mmHg 85%
    18:00 +9°C° 0 mm 1 mps 720 mmHg 86%
    19:00 +9°C° 0 mm 1 mps 720 mmHg 86%
    20:00 +9°C° 0.1 mm 1 mps 720 mmHg 86%
    21:00 +9°C° 0.1 mm 1 mps 720 mmHg 87%
    22:00 +8°C° 0.1 mm 0 mps 720 mmHg 87%
    23:00 +8°C° 0.2 mm 0 mps 720 mmHg 88%

    20 November, Wednesday

    Time Temperature Precipitation Wind Pressure Humidity
    00:00 +8°C° 0.2 mm 0 mps 720 mmHg 89%
    01:00 +8°C° 0.2 mm 0 mps 720 mmHg 90%
    02:00 +8°C° 0.3 mm 0 mps 720 mmHg 91%
    03:00 +8°C° 0.3 mm 0 mps 720 mmHg 92%
    04:00 +8°C° 0.3 mm 0 mps 720 mmHg 92%
    05:00 +9°C° 0.6 mm 1 mps 720 mmHg 94%
    06:00 +9°C° 0.6 mm 1 mps 720 mmHg 95%
    07:00 +9°C° 0.6 mm 1 mps 720 mmHg 96%
    08:00 +9°C° 0.5 mm 1 mps 720 mmHg 96%
    09:00 +9°C° 0.5 mm 1 mps 720 mmHg 96%
    10:00 +9°C° 0.5 mm 1 mps 720 mmHg 97%
    11:00 +9°C° 0.5 mm 1 mps 720 mmHg 96%
    12:00 +10°C° 0.5 mm 1 mps 720 mmHg 95%
    13:00 +10°C° 0.5 mm 1 mps 720 mmHg 94%
    14:00 +10°C° 0 mm 1 mps 719 mmHg 95%
    15:00 +9°C° 0 mm 1 mps 719 mmHg 95%
    16:00 +9°C° 0 mm 1 mps 719 mmHg 96%
    17:00 +9°C° 0 mm 1 mps 719 mmHg 96%
    18:00 +9°C° 0 mm 1 mps 719 mmHg 96%
    19:00 +8°C° 0 mm 1 mps 719 mmHg 96%
    20:00 +7°C° 0 mm 2 mps 719 mmHg 96%
    21:00 +7°C° 0 mm 2 mps 719 mmHg 95%
    22:00 +6°C° 0 mm 2 mps 719 mmHg 95%
    23:00 +6°C° 0 mm 2 mps 719 mmHg 95%

    21 November, Thursday

    Time Temperature Precipitation Wind Pressure Humidity
    00:00 +5°C° 0 mm 2 mps 719 mmHg 95%
    01:00 +5°C° 0 mm 2 mps 718 mmHg 95%
    02:00 +5°C° 0 mm 2 mps 718 mmHg 95%
    03:00 +4°C° 0 mm 2 mps 718 mmHg 95%
    04:00 +4°C° 0 mm 2 mps 718 mmHg 94%
    05:00 +4°C° 0 mm 2 mps 718 mmHg 94%
    06:00 +4°C° 0 mm 2 mps 718 mmHg 93%
    07:00 +3°C° 0 mm 2 mps 718 mmHg 92%
    08:00 +3°C° 0 mm 3 mps 718 mmHg 88%
    09:00 +4°C° 0 mm 3 mps 718 mmHg 84%
    10:00 +5°C° 0 mm 4 mps 718 mmHg 80%
    11:00 +5°C° 0 mm 4 mps 718 mmHg 78%
    12:00 +6°C° 0 mm 5 mps 718 mmHg 76%
    13:00 +7°C° 0 mm 6 mps 717 mmHg 75%
    14:00 +7°C° 0 mm 6 mps 717 mmHg 77%
    15:00 +7°C° 0 mm 6 mps 717 mmHg 80%
    16:00 +7°C° 0 mm 6 mps 717 mmHg 82%
    17:00 +5°C° 0 mm 6 mps 717 mmHg 84%
    18:00 +5°C° 0 mm 6 mps 717 mmHg 85%
    19:00 +5°C° 0 mm 6 mps 717 mmHg 86%
    20:00 +5°C° 0 mm 6 mps 717 mmHg 87%
    21:00 +5°C° 0 mm 6 mps 717 mmHg 87%
    22:00 +6°C° 0 mm 5 mps 717 mmHg 87%
    23:00 +5°C° 0 mm 5 mps 717 mmHg 88%
    Show more